TimeCST,TemperatureF,Dew PointF,Humidity,Sea Level PressureIn,VisibilityMPH,Wind Direction,Wind SpeedMPH,Gust SpeedMPH,PrecipitationIn,Events,Conditions,WindDirDegrees,DateUTC
12:53 AM,32.0,30.0,92,30.08,10.0,Calm,Calm,-,N/A,,Clear,0,2012-11-18 06:53:00
1:53 AM,30.9,28.0,89,30.06,10.0,Calm,Calm,-,N/A,,Clear,0,2012-11-18 07:53:00
2:53 AM,30.0,28.0,92,30.06,10.0,Calm,Calm,-,N/A,,Clear,0,2012-11-18 08:53:00
3:53 AM,30.9,28.0,89,30.06,9.0,Calm,Calm,-,N/A,,Clear,0,2012-11-18 09:53:00
4:53 AM,30.9,28.9,92,30.06,7.0,Calm,Calm,-,N/A,,Clear,0,2012-11-18 10:53:00
5:48 AM,28.4,26.6,93,30.02,2.5,SSE,3.5,-,N/A,,Clear,150,2012-11-18 11:48:00
5:53 AM,28.9,27.0,92,30.07,7.0,SE,3.5,-,N/A,,Clear,130,2012-11-18 11:53:00
6:53 AM,30.9,28.9,92,30.07,8.0,SE,5.8,-,N/A,,Clear,130,2012-11-18 12:53:00
7:53 AM,28.4,26.6,93,30.02,5.0,Calm,Calm,-,N/A,,Clear,0,2012-11-18 13:53:00
8:53 AM,34.0,32.0,92,30.08,8.0,East,3.5,-,N/A,,Clear,100,2012-11-18 14:53:00
9:53 AM,45.0,35.1,68,30.05,10.0,South,11.5,-,N/A,,Clear,180,2012-11-18 15:53:00
10:53 AM,50.0,34.0,54,30.04,10.0,South,11.5,-,N/A,,Clear,180,2012-11-18 16:53:00
11:53 AM,55.0,34.0,45,30.01,10.0,South,13.8,-,N/A,,Clear,170,2012-11-18 17:53:00
12:53 PM,59.0,35.1,41,29.97,10.0,South,12.7,18.4,N/A,,Clear,190,2012-11-18 18:53:00
1:53 PM,59.0,35.1,41,29.95,10.0,South,15.0,-,N/A,,Clear,170,2012-11-18 19:53:00
2:53 PM,59.0,35.1,41,29.95,10.0,South,16.1,21.9,N/A,,Clear,180,2012-11-18 20:53:00
3:53 PM,57.9,34.0,41,29.96,10.0,South,15.0,-,N/A,,Clear,170,2012-11-18 21:53:00
4:53 PM,54.0,34.0,47,29.98,10.0,South,9.2,-,N/A,,Clear,180,2012-11-18 22:53:00
5:53 PM,50.0,34.0,54,29.99,10.0,SSE,5.8,-,N/A,,Clear,150,2012-11-18 23:53:00
6:53 PM,48.0,34.0,58,29.99,10.0,SE,4.6,-,N/A,,Clear,140,2012-11-19 00:53:00
7:53 PM,41.0,32.0,70,30.01,10.0,South,5.8,-,N/A,,Clear,190,2012-11-19 01:53:00
8:53 PM,36.0,28.9,76,30.01,10.0,Calm,Calm,-,N/A,,Clear,0,2012-11-19 02:53:00
9:53 PM,32.0,28.0,85,30.01,10.0,Calm,Calm,-,N/A,,Clear,0,2012-11-19 03:53:00
10:53 PM,33.8,30.2,87,29.95,10.0,SE,4.6,-,N/A,,Clear,130,2012-11-19 04:53:00
11:53 PM,30.0,28.9,96,30.00,10.0,Calm,Calm,-,N/A,,Clear,0,2012-11-19 05:53:00